地球静止运行环境卫星 15 星 (EWS-G2 (GOES 15))

导读 | 星芒AI

EWS-G2(GOES-15)是美国国家气象局(NOAA)的静止气象卫星,于2010年发射,位于西经135度的地球同步轨道。它主要用于监测北美西部、太平洋和中美洲的天气变化,提供高分辨率的云图、闪电数据和大气温度、湿度信息。该卫星配备先进的成像仪和闪电测绘仪,支持天气预报、风暴追踪和气候研究。EWS-G2在极端天气预警和灾害监测中发挥重要作用,是美国西部地区气象服务的关键工具。

基本信息
目录编号:
36411
目录名称:
GOES 15
国际标识:
2010-008A
轨道中心:
EARTH
卫星名称:
地球静止运行环境卫星 15 星
卫星全名:
地球静止运行环境卫星 15 星 (EWS-G2 (GOES 15))
卫星状态:
在轨 (已飞行5763 天)
发射日期:
2010-03-04 UTC
国别 :
美国 (US)
星等 :
--
轨道信息
数据来源 国际轨道数据 AOE轨道数据
星历时间 2025-12-13T06:19:55+0800
11小时前
查看轨道信息
2025-12-13T08:00:00+0800
9小时前
查看轨道信息
半长轴 42165.289km 42165.373km
偏心率 0.0005713 0.0005756
轨道倾角 0.815° 0.815°
近地点辐角 174.731° 174.361°
升交点赤经 86.068° 86.049°
平近点角 217.457° 242.934°
近地点 35763.064km 35762.967km
远地点 35811.244km 35811.509km
周期 1436.125分钟 1436.130分钟
每日圈数 1.002698 1.002695
详细信息
卫星平台:
BSS-601
平衡模式:
三轴稳定
覆盖范围:
全球
制造商(研发单位):
波音公司
制造商所在国:
美国
使用方式:
暂无
卫星简介
地球静止环境业务卫星是美国国家海洋和大气管理局(NOAA)与美国国家航空航天局(NASA)共同发展的民用静止轨道气象系列卫星。[1]美国第一代地球静止轨道气象卫星系列。英文缩写为GOES。该卫星仍在工作。
2D轨道图
3D轨道图
轨道高度分析图
轨道倾角分析图
轨道综合分析图
查看轨道综合分析图